ラーソン彗星

382P/Larson (2007)

English version
Home page
Updated on September 28, 2019

---------------------------------------------------------------------

・ プロフィール

符号 382P/2007 R1
発見日 2007年9月4日
発見光度 18.2等
発見者 S. Larson (Mt. Lemmon Survey)

・ 写真集

・ 軌道要素

Epoch 2007 Aug. 8.0 TT = JDT 2454320.5
T 2007 Aug. 22.97599 TT                                 MPCW
q   4.3518440            (2000.0)            P               Q
n   0.06667844     Peri.  175.04601     +0.99832956     +0.05763877
a   6.0229940      Node   181.66538     -0.05659246     +0.96166377
e   0.2774617      Incl.    7.87763     -0.01163560     +0.26810553
P  14.78
From 226 observations 2007 Sept. 4-2019 June 3, mean residual 0".6.

・ 光度変化

        m1 = 9.0 + 5 logΔ + 10.0 log r

---------------------------------------------------------------------

軌道要素はM.P.E.C. 2019-L42に掲載されたものです。
光度グラフはComet for Windowsで作成したものです。

---------------------------------------------------------------------

Copyright(C) Seiichi Yoshida (comet@aerith.net). All rights reserved.